FENGYUN 1C DEB, 35173

Orbit data source: Space-Track

FENGYUN 1C DEB, 35173 is space debris in SSO originally from a launch on Mon, 10 May 1999 UTC launched from the Taiyaun Space Center, China (TSC). Fengyun 1C debris stems from the Chinese weather satellite Fengyun-1C, which was intentionally destroyed by a Chinese anti-satellite missile in 2007. This event dramatically increased the amount of space debris, with thousands of trackable fragments posing hazards to satellites and human spaceflight. The Fengyun 1C debris cloud has become a focal point in discussions about space sustainability and the need for international regulations to prevent the creation of new debris.

Loading next visibility...
Identifier
35173, 1999-025DND
Orbit
SSO
Country
Flag of CNCN / PRC
Related business
Manufacturer
Unknown
Mission
Spacecraft
Bus & Motor
Unknown
Mass
Unknown
Launch date (UTC)
1999-05-10 (27 years ago)
Launch vehicle
Unknown
Launch site
Taiyaun Space Center, China (TSC)
Object type
Payload
Rocket body
Debris
Shape & HBR
Unknown shape, 0.1 m
Radar Cross Section
Small (<0.1 m²)

Expand to show TLE details & history
Last TLE update: 3 days ago

TLE from 3 days ago
0 FENGYUN 1C DEB
1 35173U 99025DND 26118.91955987  .00002973  00000-0  28765-2 0  9996
2 35173  99.7741 190.6862 0487193 239.2399 115.9899 13.37926451676630
Epoch: 2026-04-28T22:04Z
TLE epoch observation values (Epoch: 2026-04-28T22:04:09.972Z)
Latitude
0.00004°
Longitude
2.75668°
Altitude
1,293.739 km
Speed
7.125 km/s
True Right ascension
12h 42m 44s
True Declination
0° 00' 00"
Sunlit
Object was in full shadow at epoch
Visualization orbit readout
Latitude
Unknown
Longitude
Unknown
Altitude
Unknown
Speed
Unknown
Apparent Right ascension
Unknown
Apparent Declination
Unknown
Sunlit
N/A
Visualization observer readout
Local Sidereal Time
02:47:44
Azimuth
Unknown
Elevation
Unknown
Doppler factor
Unknown
Orbital elements
Apogee altitude
1,479.353 km
Perigee altitude
749.298 km
Semi-major axis
7,492.462 km
Eccentricity
0.04872
Inclination
99.7741°
RAAN
190.6862°
Arg. of periapsis
239.2399°
True anomaly
120.87167°
Mean anomaly
115.9899°
Eccentric anomaly
118.44433°
Mean motion
3.34662 °/min
Orbital period
107.57 mins
BSTAR
0.0028765
Loading maneuver chart data...
Computing Atmospheric mass density...
Loading historical data...
Loading historical data...
Loading historical data...
Loading historical data...
Loading historical data...
Loading historical data...
Loading historical data...

Documentation

Showing up to 5 results
|